TimeCDT,TemperatureF,Dew PointF,Humidity,Sea Level PressureIn,VisibilityMPH,Wind Direction,Wind SpeedMPH,Gust SpeedMPH,PrecipitationIn,Events,Conditions,WindDirDegrees,DateUTC
12:53 AM,43.0,33.1,68,29.79,10.0,WNW,9.2,-,N/A,,Clear,300,2013-04-12 05:53:00
1:53 AM,39.9,34.0,79,29.78,10.0,West,3.5,-,N/A,,Clear,280,2013-04-12 06:53:00
2:53 AM,37.9,33.1,83,29.78,10.0,SW,4.6,-,N/A,,Clear,220,2013-04-12 07:53:00
3:53 AM,37.9,33.1,83,29.79,10.0,SW,4.6,-,N/A,,Clear,220,2013-04-12 08:53:00
4:53 AM,39.0,33.1,79,29.81,10.0,SSW,4.6,-,N/A,,Clear,200,2013-04-12 09:53:00
5:53 AM,39.0,33.1,79,29.82,10.0,SSW,3.5,-,N/A,,Clear,200,2013-04-12 10:53:00
6:53 AM,39.0,34.0,82,29.83,10.0,SSW,4.6,-,N/A,,Clear,210,2013-04-12 11:53:00
7:53 AM,43.0,36.0,76,29.84,10.0,SSW,8.1,-,N/A,,Clear,210,2013-04-12 12:53:00
8:53 AM,46.9,37.9,71,29.86,10.0,West,10.4,-,N/A,,Mostly Cloudy,260,2013-04-12 13:53:00
9:53 AM,51.1,37.9,61,29.86,10.0,WSW,11.5,-,N/A,,Scattered Clouds,250,2013-04-12 14:53:00
10:53 AM,53.1,39.0,59,29.87,10.0,WSW,18.4,25.3,N/A,,Partly Cloudy,250,2013-04-12 15:53:00
11:53 AM,54.0,39.0,57,29.87,10.0,WSW,23.0,34.5,N/A,,Scattered Clouds,250,2013-04-12 16:53:00
12:53 PM,55.0,39.0,55,29.86,10.0,WSW,20.7,28.8,N/A,,Mostly Cloudy,240,2013-04-12 17:53:00
1:53 PM,57.0,39.0,51,29.87,10.0,West,18.4,29.9,N/A,,Mostly Cloudy,260,2013-04-12 18:53:00
2:53 PM,55.9,39.0,53,29.87,10.0,WSW,12.7,27.6,N/A,,Mostly Cloudy,250,2013-04-12 19:53:00
3:53 PM,55.9,39.0,53,29.87,10.0,WSW,17.3,-,N/A,,Mostly Cloudy,240,2013-04-12 20:53:00
4:53 PM,60.1,37.9,44,29.86,10.0,West,13.8,18.4,N/A,,Mostly Cloudy,270,2013-04-12 21:53:00
5:53 PM,59.0,33.1,38,29.88,10.0,WNW,12.7,-,N/A,,Clear,300,2013-04-12 22:53:00
6:53 PM,57.0,32.0,39,29.89,10.0,West,10.4,-,N/A,,Clear,270,2013-04-12 23:53:00
7:53 PM,52.0,34.0,50,29.92,10.0,North,13.8,19.6,N/A,,Clear,350,2013-04-13 00:53:00
8:53 PM,46.9,35.1,63,29.95,10.0,North,9.2,-,N/A,,Clear,360,2013-04-13 01:53:00
9:53 PM,46.0,34.0,63,29.99,10.0,North,10.4,-,N/A,,Clear,360,2013-04-13 02:53:00
10:53 PM,44.1,32.0,63,30.03,10.0,North,11.5,-,N/A,,Clear,10,2013-04-13 03:53:00
11:53 PM,41.0,32.0,70,30.05,10.0,North,5.8,-,N/A,,Clear,10,2013-04-13 04:53:00